Location: Heilbronn
(49.1548°N, 9.2780°E)
Time: 02:53:04
(UTC+02:00)

ISS - Visible Passes

Search period start: 24 April 2019 00:00
Search period end: 04 May 2019 00:00
Orbit: 408 x 410 km, 51.6° (Epoch: 24 April)

Date Brightness Start Highest point End Pass type
(mag) Time Alt. Az. Time Alt. Az. Time Alt. Az.
30 Apr -1.5 05:20:46 10° S 05:23:05 18° SE 05:25:25 10° E visible
01 May -1.1 04:31:26 10° SSE 04:32:26 11° SE 04:33:27 10° ESE visible
02 May -2.7 05:14:34 10° SW 05:17:36 34° SSE 05:20:40 10° E visible
03 May -2.1 04:25:19 16° S 04:26:50 22° SE 04:29:31 10° E visible
